Location: McFarlands Corners
(41.4117°N, 81.3382°W)
Time: 06:03:52
(UTC+00:00)

Tiros 1 - Pass Details

Date: 20 February 2026
Orbit: 618 x 649 km, 48.4° (Epoch: 5 March)

Event Time Altitude Azimuth Distance (km) Brightness Sun altitude
Rises 12:11:26 0° 214° (SSW) 2,917 10.3 -1.2°
Reaches altitude 10° 12:13:54 10° 205° (SSW) 2,006 9.6 -0.7°
Maximum altitude 12:18:06 35° 140° (SE) 1,019 8.9 0.0°
Drops below altitude 10° 12:22:16 10° 75° (ENE) 1,998 10.8 0.8°
Sets 12:24:43 0° 66° (ENE) 2,902 11.4 1.2°
